User: anonymous   Login
Location: Acton
(51.4942°N, 0.2232°W)
Time: 03:59:51
(UTC+00:00)
Language:

Terra - Orbit

View from above orbital plane
View from above orbital plane
View from above satellite
View from above satellite

Ground track
Ground track

The orbit data is extracted from the following two-line orbital elements,

1 25994U 99068A   20337.84812304  .00000116  00000-0  35717-4 0  9991
2 25994  98.1986  49.6573 0001135  93.5606  40.1979 14.57120782114839
Epoch (UTC): 02 December 2020 20:21:17
Eccentricity: 0.0001135
inclination: 98.1986°
perigee height: 701 km
apogee height: 703 km
right ascension of ascending node: 49.6573°
argument of perigee: 93.5606°
revolutions per day: 14.57120782
mean anomaly at epoch: 40.1979°
orbit number at epoch: 11483

The dashed part of the orbit path shows where the satellite is in the earth's shadow,  

DLR